カタログに戻る

OPS 3367 A

運用中ナビゲーションSSO
NORAD 734·PAYLOAD·🇺🇸 United States

打ち上げ Jan 19, 1964 から Vandenberg Space Force Base

Loading…

次のパス (今後24時間)

TLE

最新Source: Space-Track

元期: Sep 14, 2026, 06:15 UTC

1 00734U 64002B   26257.26062600  .00000059  00000-0  41481-4 0  9996
2 00734  98.9804 190.1607 0013455 289.9099  70.0632 14.29719916261491

AllMySatでOPS 3367 Aをリアルタイム追跡

Download on the App Store